EW4347 Weather Reports


time (UTC)temp
C
wind
direction
speed
KPH
gust
KPH
rain 1hr
cm
rain 24hr
cm
rain mn
cm
humidity
%
barometer
mb
20260502130329 5 45 1.6 6.4 0.00 0.00 0.00 81 1014.2
20260502123327 3 70 4.8 14.5 0.00 0.00 0.00 89 1014.4
20260502123144 3 48 3.2 14.5 0.00 0.00 0.00 89 1014.4
20260502122826 3 46 6.4 14.5 0.00 0.00 0.00 89 1014.3
20260502122326 3 66 3.2 9.7 0.00 0.00 0.00 91 1014.3
20260502121826 3 64 1.6 9.7 0.00 0.00 0.00 91 1014.2
20260502121621 3 63 4.8 9.7 0.00 0.00 0.00 91 1014.2
20260502121325 3 63 1.6 9.7 0.00 0.00 0.00 92 1014.1
20260502120825 3 60 1.6 11.3 0.00 0.00 0.00 91 1014.1
20260502120324 3 103 6.4 11.3 0.00 0.00 0.00 91 1014.0
20260502115824 3 72 3.2 6.4 0.00 0.00 0.00 91 1013.8
20260502115324 3 89 1.6 4.8 0.00 0.00 0.00 92 1013.7
20260502114824 3 89 1.6 3.2 0.00 0.00 0.00 93 1013.7
20260502114548 3 89 0.0 3.2 0.00 0.00 0.00 94 1013.7
20260502114323 3 89 1.6 3.2 0.00 0.00 0.00 94 1013.6
20260502113823 2 225 0.0 3.2 0.00 0.00 0.00 96 1013.5
20260502113322 2 228 0.0 3.2 0.00 0.00 0.00 96 1013.2
20260502113019 2 228 0.0 3.2 0.00 0.00 0.00 96 1013.4
20260502112822 2 228 0.0 3.2 0.00 0.00 0.00 96 1013.4
20260502112322 1 284 0.0 1.6 0.00 0.00 0.00 96 1013.4
20260502111821 1 280 0.0 1.6 0.00 0.00 0.00 96 1013.3
20260502111504 1 278 0.0 1.6 0.00 0.00 0.00 96 1013.4
20260502111239 1 234 0.0 1.6 0.00 0.00 0.00 97 1013.4
20260502110738 1 234 0.0 1.6 0.00 0.00 0.00 97 1013.3
20260502110156 1 235 0.0 3.2 0.00 0.00 0.00 97 1013.2
20260502105656 1 235 0.0 3.2 0.00 0.00 0.00 97 1013.0
20260502105010 1 235 0.0 4.8 0.00 0.00 0.00 97 1012.9
20260502104509 1 235 0.0 3.2 0.00 0.00 0.00 98 1013.1
20260502104009 0 235 1.6 3.2 0.00 0.00 0.00 97 1013.1
20260502103509 0 235 0.0 1.6 0.00 0.00 0.00 97 1013.1
20260502102947 0 235 0.0 1.6 0.00 0.00 0.00 97 1013.1
20260502102405 0 247 0.0 1.6 0.00 0.00 0.00 97 1013.0
20260502101905 0 247 0.0 1.6 0.00 0.00 0.00 97 1013.0
20260502101404 0 248 0.0 1.6 0.00 0.00 0.00 97 1012.9
20260502100822 0 248 0.0 3.2 0.00 0.00 0.00 97 1012.7
20260502100322 0 287 0.0 3.2 0.00 0.00 0.00 97 1012.5
20260502091215 0 213 0.0 1.6 0.00 0.03 0.00 97 1012.9
20260502090654 -1 213 0.0 1.6 0.00 0.03 0.00 96 1012.9
20260502090153 -1 213 0.0 0.0 0.00 0.03 0.00 96 1012.8
20260502080107 -1 213 0.0 0.0 0.00 0.03 0.00 95 1012.0
20260502071533 -1 213 0.0 0.0 0.00 0.03 0.00 94 1012.1
20260502071523 -1 213 0.0 0.0 0.00 0.03 0.00 94 1012.0
20260502071023 -1 213 0.0 0.0 0.00 0.03 0.00 94 1012.1
20260502070522 0 213 0.0 0.0 0.00 0.03 0.00 94 1012.1
20260502070022 0 213 0.0 0.0 0.00 0.03 0.00 95 1012.1
20260502070007 0 213 0.0 0.0 0.00 0.03 0.00 95 1012.1
20260502065522 0 213 0.0 0.0 0.00 0.03 0.00 95 1012.0
20260502065000 0 213 0.0 0.0 0.00 0.03 0.00 95 1012.0
20260502064501 0 213 0.0 0.0 0.00 0.03 0.00 94 1012.1
20260502064000 0 213 0.0 0.0 0.00 0.03 0.00 94 1012.1
20260502063500 0 213 0.0 0.0 0.00 0.03 0.00 94 1012.0
20260502062959 0 213 0.0 0.0 0.00 0.03 0.00 94 1012.0
20260502062459 0 213 0.0 0.0 0.00 0.03 0.00 94 1011.9
20260502061959 0 213 0.0 0.0 0.00 0.03 0.00 93 1011.9
20260502061458 0 213 0.0 1.6 0.00 0.03 0.00 93 1011.8
20260502060958 0 213 0.0 3.2 0.00 0.03 0.00 93 1011.9
20260502060457 0 213 1.6 3.2 0.00 0.03 0.00 93 1011.9
20260502055957 0 212 0.0 0.0 0.00 0.03 0.00 93 1011.8
20260502055457 0 212 0.0 0.0 0.00 0.03 0.00 93 1011.9
20260502054956 0 212 0.0 0.0 0.00 0.03 0.00 92 1011.9
20260502054456 0 212 0.0 1.6 0.00 0.03 0.00 92 1012.0
20260502053956 0 212 0.0 1.6 0.00 0.03 0.00 92 1012.0
20260502053455 0 212 0.0 1.6 0.00 0.03 0.00 93 1011.9
20260502052955 0 212 0.0 3.2 0.00 0.03 0.00 93 1011.9
20260502052455 0 212 0.0 3.2 0.00 0.03 0.00 93 1011.8
20260502051933 0 213 0.0 0.0 0.00 0.03 0.00 92 1011.7
20260502051433 0 213 0.0 0.0 0.00 0.03 0.00 91 1011.7
20260502050911 0 213 0.0 0.0 0.00 0.03 0.00 91 1011.7
20260502050411 0 213 0.0 1.6 0.00 0.03 0.00 91 1011.7
20260502045911 0 213 0.0 3.2 0.00 0.03 0.00 90 1011.6
20260502045410 0 213 0.0 3.2 0.00 0.03 0.00 90 1011.6
20260502044910 0 213 0.0 0.0 0.00 0.03 0.00 91 1011.6
20260502044410 0 212 0.0 0.0 0.00 0.03 0.00 90 1011.5
20260502043910 1 212 0.0 1.6 0.00 0.03 0.00 90 1011.5
20260502043409 1 212 0.0 1.6 0.00 0.03 0.00 90 1011.4
20260502042909 1 212 0.0 0.0 0.00 0.03 0.00 89 1011.5
20260502042409 1 212 0.0 0.0 0.00 0.03 0.00 88 1011.5
20260502041908 1 212 0.0 0.0 0.00 0.03 0.00 89 1011.5
20260502041408 1 212 0.0 0.0 0.00 0.03 0.00 89 1011.5
20260502040908 1 212 0.0 0.0 0.00 0.03 0.00 90 1011.4
20260502040407 1 213 0.0 0.0 0.00 0.03 0.00 89 1011.4
20260502040150 1 213 0.0 0.0 0.00 0.03 0.00 89 1011.4
20260502035907 1 213 0.0 0.0 0.00 0.05 0.03 88 1011.3
20260502035406 1 213 0.0 0.0 0.00 0.05 0.03 88 1011.3
20260502034906 1 212 0.0 0.0 0.00 0.05 0.03 87 1011.3
20260502034636 1 213 0.0 0.0 0.00 0.05 0.03 87 1011.3
20260502034406 1 212 0.0 0.0 0.00 0.05 0.03 87 1011.2
20260502033906 1 212 0.0 1.6 0.00 0.05 0.03 86 1011.1
20260502033405 2 213 0.0 1.6 0.00 0.05 0.03 86 1011.2
20260502033109 2 213 0.0 1.6 0.00 0.05 0.03 85 1011.2
20260502032905 2 212 0.0 1.6 0.00 0.05 0.03 85 1011.2
20260502032343 2 212 0.0 1.6 0.00 0.05 0.03 87 1011.2
20260502031843 2 212 0.0 0.0 0.00 0.05 0.03 87 1011.1
20260502031600 2 212 0.0 1.6 0.00 0.05 0.03 87 1011.2
20260502031322 2 212 0.0 3.2 0.00 0.05 0.03 86 1011.1
20260502030821 2 212 0.0 3.2 0.00 0.05 0.03 85 1011.1
20260502030321 2 212 0.0 3.2 0.00 0.05 0.03 85 1011.0
20260502030054 2 213 0.0 3.2 0.00 0.05 0.03 85 1011.0
20260502025821 2 213 0.0 3.2 0.00 0.05 0.03 85 1011.0
20260502025320 2 213 0.0 0.0 0.00 0.05 0.03 85 1011.0
20260502024820 2 213 0.0 0.0 0.00 0.05 0.03 85 1011.0
20260502024538 2 213 0.0 1.6 0.00 0.05 0.03 84 1011.1
20260502024320 2 213 0.0 1.6 0.00 0.05 0.03 83 1011.1
20260502023819 3 213 0.0 1.6 0.00 0.05 0.03 81 1011.1
20260502023319 3 213 0.0 1.6 0.00 0.05 0.03 80 1011.1
20260502022758 3 213 0.0 3.2 0.00 0.05 0.03 78 1011.1
20260502022257 3 213 0.0 3.2 0.00 0.05 0.03 77 1011.0
20260502021715 3 213 0.0 4.8 0.00 0.05 0.03 74 1011.1
20260502021214 3 213 0.0 6.4 0.00 0.05 0.03 76 1011.0
20260502020632 3 203 1.6 3.2 0.00 0.05 0.03 77 1011.0
20260502020131 4 202 0.0 3.2 0.00 0.05 0.03 75 1011.2
20260502015631 4 201 0.0 3.2 0.00 0.05 0.03 75 1011.2
20260502015131 5 201 0.0 1.6 0.00 0.05 0.03 73 1011.2
20260502014631 5 201 0.0 1.6 0.00 0.05 0.03 72 1011.1
20260502014130 5 201 0.0 3.2 0.00 0.05 0.03 71 1011.1
20260502013630 6 201 0.0 3.2 0.00 0.05 0.03 66 1011.0
20260502013129 6 201 0.0 4.8 0.00 0.05 0.03 64 1011.1
20260502012629 6 201 1.6 9.7 0.00 0.05 0.03 62 1011.0
20260502012129 6 201 3.2 9.7 0.00 0.05 0.03 61 1010.9
20260502011628 7 197 1.6 14.5 0.00 0.05 0.03 61 1010.9
20260502011128 7 167 1.6 14.5 0.00 0.05 0.03 60 1010.8
20260502010628 7 171 3.2 11.3 0.00 0.05 0.03 60 1010.6
20260502010127 7 175 1.6 11.3 0.00 0.05 0.03 60 1010.5
20260502005627 7 170 3.2 11.3 0.00 0.08 0.03 60 1010.5
20260502005126 7 181 3.2 11.3 0.00 0.08 0.03 60 1010.4
20260502004544 7 187 3.2 12.9 0.00 0.08 0.03 59 1010.3
20260502004023 8 177 3.2 11.3 0.00 0.08 0.03 58 1010.2
20260502003522 8 172 6.4 9.7 0.00 0.08 0.03 57 1010.1
20260502003022 8 178 3.2 9.7 0.00 0.08 0.03 58 1010.0
20260502002522 8 183 3.2 9.7 0.00 0.08 0.03 56 1009.9
20260502002022 8 201 3.2 11.3 0.00 0.08 0.03 56 1009.8
20260502001521 8 177 3.2 11.3 0.00 0.08 0.03 56 1009.7
20260502001021 8 210 4.8 12.9 0.00 0.08 0.03 55 1009.5
20260502000521 8 199 1.6 16.1 0.00 0.08 0.03 54 1009.5
20260502000021 8 180 4.8 16.1 0.00 0.08 0.03 52 1009.3
20260501235520 9 187 3.2 9.7 0.00 0.10 0.03 53 1009.1
20260501235020 9 164 3.2 9.7 0.00 0.10 0.03 53 1009.0
20260501234701 10 151 3.2 9.7 0.00 0.10 0.03 53 1009.0
20260501234520 10 176 3.2 11.3 0.00 0.10 0.03 52 1008.9
20260501234020 10 174 3.2 16.1 0.00 0.10 0.03 50 1008.7
20260501233519 10 171 3.2 25.7 0.00 0.10 0.03 49 1008.6
20260501233146 10 168 6.4 25.7 0.00 0.10 0.03 48 1008.6
20260501233019 10 113 8.0 25.7 0.00 0.10 0.03 48 1008.5
20260501232518 10 164 6.4 14.5 0.00 0.10 0.03 47 1008.3
20260501232018 10 159 6.4 12.9 0.00 0.10 0.03 47 1008.2
20260501231630 11 162 4.8 17.7 0.00 0.10 0.03 46 1008.2
20260501231518 11 164 4.8 17.7 0.00 0.10 0.03 46 1008.1
20260501231018 11 166 8.0 17.7 0.00 0.10 0.03 46 1008.0
20260501230517 11 185 4.8 16.1 0.00 0.10 0.03 46 1007.9
20260501230108 11 206 8.0 19.3 0.00 0.10 0.03 44 1007.9
20260501230017 11 177 9.7 19.3 0.00 0.10 0.03 45 1007.8
20260501225516 11 167 9.7 19.3 0.00 0.18 0.03 45 1007.8
20260501225016 11 179 8.0 19.3 0.00 0.18 0.03 44 1007.7
20260501224553 12 162 8.0 24.1 0.00 0.18 0.03 43 1007.7
20260501224516 12 141 8.0 24.1 0.00 0.18 0.03 44 1007.6
20260501224015 12 159 12.9 24.1 0.00 0.18 0.03 43 1007.6
20260501223454 12 169 9.7 16.1 0.00 0.18 0.03 42 1007.6
20260501223050 12 168 8.0 19.3 0.00 0.18 0.03 41 1007.6
20260501222933 12 160 8.0 20.9 0.00 0.18 0.03 42 1007.5
20260501222432 12 170 8.0 20.9 0.00 0.18 0.03 43 1007.5
20260501221932 12 158 11.3 20.9 0.00 0.18 0.03 42 1007.4
20260501221524 12 120 11.3 20.9 0.00 0.18 0.03 42 1007.4
20260501221432 12 190 11.3 24.1 0.00 0.18 0.03 42 1007.3
20260501220931 12 154 8.0 24.1 0.00 0.18 0.03 43 1007.3
20260501220410 12 214 9.7 22.5 0.00 0.18 0.03 42 1007.3
20260501215909 13 149 12.9 22.5 0.00 0.48 0.03 42 1007.2
20260501215409 13 166 12.9 22.5 0.00 0.48 0.03 41 1007.2
20260501214848 13 162 9.7 16.1 0.00 0.48 0.03 41 1007.1
20260501214347 13 177 6.4 25.7 0.00 0.48 0.03 42 1007.0
20260501213847 13 187 11.3 25.7 0.00 0.48 0.03 41 1007.1
20260501213347 13 137 8.0 22.5 0.00 0.48 0.03 43 1007.0
20260501212846 13 154 8.0 22.5 0.00 0.48 0.03 43 1007.0
20260501212346 13 70 11.3 29.0 0.00 0.48 0.03 44 1006.9
20260501211846 13 160 16.1 29.0 0.00 0.48 0.03 44 1006.9
20260501211346 13 161 12.9 27.4 0.00 0.48 0.03 44 1006.8
20260501210845 13 120 12.9 27.4 0.00 0.48 0.03 44 1006.8
20260501210345 14 155 9.7 25.7 0.00 0.48 0.03 44 1006.7
20260501205823 14 152 11.3 22.5 0.00 0.99 0.03 43 1006.6
20260501205305 14 210 6.4 22.5 0.00 0.99 0.03 42 1006.6
20260501204802 14 92 4.8 17.7 0.00 0.99 0.03 44 1006.5
20260501204302 14 166 9.7 17.7 0.00 0.99 0.03 42 1006.5
20260501203801 13 106 11.3 25.7 0.00 0.99 0.03 43 1006.5
20260501203301 13 190 9.7 24.1 0.00 0.99 0.03 44 1006.4
20260501202801 13 131 12.9 24.1 0.00 0.99 0.03 44 1006.4
20260501202300 13 179 14.5 27.4 0.00 0.99 0.03 44 1006.3
20260501201739 14 174 12.9 19.3 0.00 0.99 0.03 45 1006.3
20260501201239 13 147 9.7 20.9 0.00 0.99 0.03 45 1006.2
20260501200738 13 150 11.3 32.2 0.00 0.99 0.03 46 1006.2
20260501200238 13 193 12.9 20.9 0.00 0.99 0.03 46 1006.1
20260501195717 13 181 6.4 19.3 0.00 1.57 0.03 48 1006.0
20260501195217 13 147 11.3 19.3 0.00 1.57 0.03 48 1006.0
20260501194716 13 79 6.4 20.9 0.00 1.57 0.03 48 1005.9
20260501194216 13 201 4.8 19.3 0.00 1.57 0.03 49 1005.8
20260501193716 13 138 9.7 22.5 0.00 1.57 0.03 48 1005.8
20260501193216 13 72 4.8 22.5 0.00 1.57 0.03 49 1005.8
20260501192716 13 158 11.3 22.5 0.00 1.57 0.03 48 1005.8
20260501192215 13 152 9.7 24.1 0.00 1.57 0.03 48 1005.8
20260501191715 14 208 9.7 24.1 0.00 1.57 0.03 49 1005.7
20260501191657 14 208 9.7 24.1 0.00 1.57 0.03 49 1005.8
20260501191215 14 173 12.9 19.3 0.00 1.57 0.03 46 1005.8
20260501190714 14 187 9.7 24.1 0.00 1.57 0.03 51 1005.7
20260501190214 13 193 8.0 24.1 0.00 1.57 0.03 52 1005.7
20260501190143 13 179 6.4 22.5 0.00 1.57 0.03 52 1005.8
20260501185713 13 199 8.0 20.9 0.00 1.65 0.03 49 1005.8
20260501185213 13 139 8.0 17.7 0.00 1.65 0.03 49 1005.7
20260501184713 13 206 11.3 25.7 0.00 1.65 0.03 50 1005.7
20260501184618 13 170 11.3 25.7 0.00 1.65 0.03 48 1005.8
20260501184212 13 181 11.3 25.7 0.00 1.65 0.03 48 1005.7
20260501183712 13 193 16.1 25.7 0.00 1.65 0.03 46 1005.7
20260501183211 13 85 12.9 22.5 0.00 1.65 0.03 48 1005.7
20260501183104 13 132 16.1 22.5 0.00 1.65 0.03 47 1005.8
20260501182711 13 169 12.9 25.7 0.00 1.65 0.03 50 1005.7
20260501182211 13 185 12.9 25.7 0.00 1.65 0.03 46 1005.6
20260501181711 13 208 8.0 24.1 0.00 1.65 0.03 45 1005.7
20260501181547 13 137 12.9 24.1 0.00 1.65 0.03 45 1005.8
20260501181210 13 192 16.1 27.4 0.00 1.65 0.03 47 1005.7
20260501180710 13 164 12.9 27.4 0.00 1.65 0.03 47 1005.6
20260501180210 13 197 14.5 22.5 0.00 1.65 0.03 47 1005.7
20260501180037 13 199 8.0 24.1 0.00 1.65 0.03 50 1005.8
20260501175709 13 126 11.3 24.1 0.00 1.83 0.03 46 1005.8
20260501175209 13 95 11.3 24.1 0.00 1.83 0.03 48 1005.8
20260501174709 13 110 9.7 25.7 0.00 1.83 0.03 50 1005.8
20260501174511 13 65 11.3 29.0 0.00 1.83 0.03 49 1005.8
20260501174208 13 150 16.1 29.0 0.00 1.83 0.03 50 1005.8
20260501173708 13 141 12.9 19.3 0.00 1.83 0.03 48 1005.7
20260501173208 13 192 9.7 19.3 0.00 1.83 0.03 53 1005.8
20260501172707 13 112 8.0 16.1 0.00 1.83 0.03 51 1005.8
20260501172207 12 145 8.0 30.6 0.00 1.83 0.03 56 1005.8
20260501171707 13 152 17.7 30.6 0.00 1.83 0.03 51 1005.7
20260501171206 13 158 9.7 25.7 0.00 1.83 0.03 56 1005.6
20260501170706 13 154 12.9 25.7 0.00 1.83 0.03 55 1005.8
20260501170144 12 116 9.7 25.7 0.00 1.83 0.03 55 1005.8
20260501165644 12 135 12.9 25.7 0.00 1.96 0.03 55 1005.8
20260501165144 13 103 9.7 22.5 0.00 1.96 0.03 54 1005.8
20260501164643 13 118 8.0 22.5 0.00 1.96 0.03 54 1005.8
20260501164143 13 171 11.3 20.9 0.00 1.96 0.03 56 1005.8
20260501163642 12 105 8.0 25.7 0.00 1.96 0.03 56 1005.7
20260501163142 12 135 14.5 25.7 0.00 1.96 0.03 58 1005.7
20260501162642 12 143 9.7 20.9 0.00 1.96 0.03 58 1005.8
20260501162142 12 197 9.7 17.7 0.00 1.96 0.03 61 1005.7
20260501161642 12 175 9.7 20.9 0.00 1.96 0.03 58 1005.8
20260501161141 12 91 6.4 20.9 0.00 1.96 0.03 61 1005.7
20260501160641 12 127 9.7 24.1 0.00 1.96 0.03 63 1005.8
20260501160119 12 210 12.9 24.1 0.00 1.96 0.03 63 1005.8
20260501155619 11 107 9.7 22.5 0.00 2.08 0.03 63 1005.9
20260501155119 11 152 11.3 17.7 0.00 2.08 0.03 62 1005.9
20260501153829 11 132 8.0 19.3 0.00 2.08 0.03 62 1006.0
20260501153329 11 133 8.0 22.5 0.00 2.08 0.03 65 1006.1
20260501152829 11 161 12.9 22.5 0.00 2.08 0.03 64 1006.1
20260501152329 11 151 8.0 17.7 0.00 2.08 0.03 65 1006.2
20260501151828 11 189 8.0 20.9 0.00 2.08 0.03 64 1006.3
20260501151328 11 99 8.0 25.7 0.00 2.08 0.03 68 1006.2
20260501150725 11 119 8.0 22.5 0.00 2.08 0.03 65 1006.3
20260501150224 10 146 9.7 22.5 0.00 2.08 0.03 67 1006.3
20260501145724 10 154 12.9 24.1 0.00 2.46 0.03 67 1006.4